Regional Weather Roundup
Issued by NWS

Home | Current Version | Previous Version | Text Only | Print | Product List | Glossary On
Versions: 1 2 3 4 5 6 7 8 9 10 11 12 13 14 15 16 17 18 19 20 21 22 23 24 25 26 27 28 29 30 31 32 33 34 35 36 37 38 39 40 41 42 43 44 45 46 47 48 49 50
000
ASUS44 KBMX 281210
RWRAL

ALABAMA REGIONAL WEATHER ROUNDUP
NATIONAL WEATHER SERVICE BIRMINGHAM AL
700 AM CDT WED SEP 28 2016

NOTE: "FAIR" INDICATES FEW OR NO CLOUDS BELOW 12,000 FEET
WITH NO SIGNIFICANT WEATHER AND/OR OBSTRUCTIONS TO VISIBILITY.

THE REMARK "TC" DENOTES TEMPERATURE IN DEGREES CELSIUS.

ALZ001>011-014-016>018-020-281300-
NORTH ALABAMA

CITY           SKY/WX    TMP DP  RH WIND       PRES   REMARKS
MUSCLE SHOALS  CLEAR     47  44  90 CALM      29.98R
6HR MIN TEMP:  47; 6HR MAX TEMP:  54;

HUNTSVILLE     CLEAR     52  48  86 CALM      29.97R
6HR MIN TEMP:  51; 6HR MAX TEMP:  59;

DECATUR          N/A     48  47  96 CALM      29.97R
6HR MIN TEMP:  47; 6HR MAX TEMP:  57;

HALEYVILLE     FAIR      47  45  93 CALM      30.00R
6HR MIN TEMP:  47; 6HR MAX TEMP:  54;

GADSDEN        CLEAR     53  51  93 CALM      29.97S
6HR MIN TEMP:  53; 6HR MAX TEMP:  64;

$$

ALZ012-013-022-023-030>036-040>044-281300-
WEST CENTRAL ALABAMA

CITY           SKY/WX    TMP DP  RH WIND       PRES   REMARKS
TUSCALOOSA     CLEAR     55  53  93 CALM      29.97R
6HR MIN TEMP:  55; 6HR MAX TEMP:  63;

$$

ALZ015-024>027-033>036-040>044-281300-
CENTRAL ALABAMA

CITY           SKY/WX    TMP DP  RH WIND       PRES   REMARKS
BIRMINGHAM     PTCLDY    58  54  86 CALM      29.99R
6HR MIN TEMP:  58; 6HR MAX TEMP:  69;

MONTGOMERY     CLEAR     68  64  87 CALM      29.95R FOG
6HR MIN TEMP:  68; 6HR MAX TEMP:  73;

SHELBY CO ARPT PTCLDY    60  56  86 CALM      29.97R
6HR MIN TEMP:  60; 6HR MAX TEMP:  69;

MAXWELL AFB    CLEAR     67  67 100 W2        29.94S
6HR MIN TEMP:  67; 6HR MAX TEMP:  72;

GREENVILLE     NOT AVBL
$$

ALZ019-021-028-029-037-038-045>048-281300-
EAST CENTRAL ALABAMA

CITY           SKY/WX    TMP DP  RH WIND       PRES   REMARKS
ANNISTON       CLEAR     60  57  89 CALM      29.97R
6HR MIN TEMP:  59; 6HR MAX TEMP:  69;

ALEXANDER CITY CLEAR     65  65 100 CALM      29.95F FOG
6HR MIN TEMP:  65; 6HR MAX TEMP:  71;

AUBURN         CLEAR     68  66  93 CALM      29.97R
6HR MIN TEMP:  68; 6HR MAX TEMP:  74;

$$

ALZ051>064-281300-
SOUTHWEST ALABAMA

CITY           SKY/WX    TMP DP  RH WIND       PRES   REMARKS
MOBILE         MOCLDY    69  62  78 CALM      29.96R
6HR MIN TEMP:  69; 6HR MAX TEMP:  73;

BROOKLEY FIELD CLOUDY    70  65  84 NW7       29.97R
6HR MIN TEMP:  70; 6HR MAX TEMP:  75;

EVERGREEN      CLEAR     68  66  93 CALM      29.96R FOG
6HR MIN TEMP:  68; 6HR MAX TEMP:  70;

$$

ALZ049-050-065>069-281300-
SOUTHEAST ALABAMA

CITY           SKY/WX    TMP DP  RH WIND       PRES   REMARKS
DOTHAN         CLOUDY    73  72  96 NW3       29.98R
6HR MIN TEMP:  70; 6HR MAX TEMP:  73;

OZARK          CLOUDY    70  70 100 CALM      29.95R
6HR MIN TEMP:  70; 6HR MAX TEMP:  72;

TROY           FOG       67  67 100 CALM      29.96S VSB 1
6HR MIN TEMP:  67; 6HR MAX TEMP:  71;

EUFAULA        NOT AVBL
$$



USA.gov is the U.S. government's official web portal to all federal, state and local government web resources and services.